This is the latest recevied weather packets stored in our database for station/object W0PE-1. If no packets are shown the sender has not sent any weather packets the latest 10 day(s).
| Time | Temp. | Humidity | Pressure | Rain* | Wind** | Luminosity | Snow |
|---|---|---|---|---|---|---|---|
| 1777939217 | 17.78° C | 58% | 1014 hPa | 0 mm | - | - | - |
| 1777938321 | 17.78° C | 59% | 1013.9 hPa | 0 mm | - | - | - |
| 1777937416 | 18.33° C | 60% | 1013.9 hPa | 0 mm | - | - | - |
| 1777936514 | 18.33° C | 59% | 1013.9 hPa | 0 mm | - | - | - |
| 1777935614 | 18.33° C | 58% | 1013.9 hPa | 0 mm | - | - | - |
| 1777934714 | 18.89° C | 56% | 1014 hPa | 0 mm | - | - | - |
| 1777933814 | 19.44° C | 56% | 1014.1 hPa | 0 mm | - | - | - |
| 1777932913 | 20° C | 58% | 1014.3 hPa | 0 mm | - | - | - |
| 1777932013 | 20.56° C | 57% | 1014.3 hPa | 0 mm | - | - | - |
| 1777931112 | 20.56° C | 55% | 1014.3 hPa | 0 mm | - | - | - |
| 1777930216 | 21.11° C | 53% | 1014.6 hPa | 0 mm | - | - | - |
| 1777929310 | 21.11° C | 52% | 1014.7 hPa | 0 mm | - | - | - |
| 1777928410 | 20.56° C | 55% | 1014.7 hPa | 0 mm | - | - | - |
| 1777927510 | 21.11° C | 53% | 1014.7 hPa | 0 mm | - | - | - |
| 1777926608 | 20.56° C | 55% | 1014.8 hPa | 0 mm | - | - | - |
| 1777925705 | 19.44° C | 55% | 1015 hPa | 0 mm | - | - | - |
| 1777924806 | 19.44° C | 57% | 1014.9 hPa | 0 mm | - | - | - |
| 1777923906 | 18.89° C | 59% | 1015.2 hPa | 0 mm | - | - | - |
| 1777923013 | 18.89° C | 58% | 1015.4 hPa | 0 mm | - | - | - |
| 1777922113 | 19.44° C | 52% | 1015.2 hPa | 0 mm | - | - | - |
| 1777921204 | 20° C | 52% | 1015.3 hPa | 0 mm | - | - | - |
| 1777920302 | 20° C | 56% | 1015.2 hPa | 0 mm | - | - | - |
| 1777919400 | 20° C | 55% | 1015.2 hPa | 0 mm | - | - | - |
| 1777918559 | 18.89° C | 57% | 1015.3 hPa | 0 mm | - | - | - |
| 1777917657 | 19.44° C | 57% | 1015.4 hPa | 0 mm | - | - | - |
* Rain latest hour (hover to see other rain measurements)
** Current wind speed in m/s (hover to see current wind gust speed)